Stations météo

réclame
Mon MeteoGroup
Katterjakk A, Suède (2019): Température de l'air & dewpoint: 16.06.2018 19:00:00 - 22.06.2018 19:00:00 (CEST)Katterjakk A, Suède (2019): Vitesse du vent & gusts: 16.06.2018 19:00:00 - 22.06.2018 19:00:00 (CEST)Katterjakk A, Suède (2019): Direction du vent: 16.06.2018 19:00:00 - 22.06.2018 19:00:00 (CEST)Katterjakk A, Suède (2019): reduced air pressure: 16.06.2018 19:00:00 - 22.06.2018 19:00:00 (CEST)Katterjakk A, Suède (2019): visibility: 16.06.2018 19:00:00 - 22.06.2018 19:00:00 (CEST)Katterjakk A, Suède (2019): Quantités de précipitations: 16.06.2018 19:00:00 - 22.06.2018 19:00:00 (CEST)
Date & Time tt [°C] td [°C] ff [km/h] ff [knt] fx [km/h] fx [knt] dd ppp [hPa] vv [km] rr [mm]
22.06.2018 19:00:00 6,1 5,5 16 9 28 15 WNW 1003,2 42 0,0
22.06.2018 18:00:00 6,8 5,4 14 8 25 13 NW 1003,2 48 0,1
22.06.2018 17:00:00 7,5 5,3 9 5 19 10 WNW 1003,2 50 0,0
22.06.2018 16:00:00 7,7 5,5 8 5 16 9 WNW 1003,6 50 0,0
22.06.2018 15:00:00 8,4 5,2 6 4 16 9 N 1003,5 50 0,0
22.06.2018 14:00:00 8,3 5,1 8 4 23 12 NNW 1003,8 50 0,0
22.06.2018 13:00:00 8,1 4,7 9 5 23 12 NW 1004,3 50 0,0
22.06.2018 12:00:00 7,8 4,4 12 6 16 9 NNW 1004,9 50 0,0
22.06.2018 11:00:00 7,8 4,0 4 2 14 8 NW 1005,5 50 0,0
22.06.2018 10:00:00 7,3 4,1 8 4 17 9 NW 1005,4 50 0,0
22.06.2018 09:00:00 7,2 4,0 8 5 17 9 NNW 1005,7 50 0,0
22.06.2018 08:00:00 6,2 4,7 11 6 16 9 NNW 1006,1 50 0,0
22.06.2018 07:00:00 5,9 4,9 8 5 12 7 NNW 1006,1 50 0,0
22.06.2018 06:00:00 5,6 4,6 6 4 12 6 NNW 1006,1 50 0,0
22.06.2018 05:00:00 5,3 4,6 5 3 10 5 NNW 1006,1 50 0,0
22.06.2018 04:00:00 5,3 4,7 3 1 9 5 SSE 1005,9 50 0,0
22.06.2018 03:00:00 5,1 4,4 3 2 9 5 NNE 1005,8 50 0,0
22.06.2018 02:00:00 5,1 4,4 4 2 8 4 SSE 1005,8 50 0,0
22.06.2018 01:00:00 5,1 4,7 0 0 16 9 N 1005,8 35 0,0
22.06.2018 00:00:00 5,3 4,7 3 2 16 9 SSW 1005,6 49 0,0
21.06.2018 23:00:00 5,3 4,9 7 4 13 7 WSW 1005,2 45 0,0
21.06.2018 22:00:00 5,6 4,9 4 2 13 7 WNW 1004,7 50 0,0
21.06.2018 21:00:00 5,7 4,8 8 4 18 10 NW 1004,3 23 0,0
21.06.2018 20:00:00 6,1 4,4 3 2 19 11 W 1004,0 37 0,0
21.06.2018 19:00:00 6,4 4,6 5 3 25 13 W 1003,6 50 0,1
21.06.2018 18:00:00 6,4 4,6 11 6 25 13 WNW 1003,4 29 0,6
21.06.2018 17:00:00 6,7 5,2 12 7 24 13 WNW 1003,0 17 0,8
21.06.2018 16:00:00 6,6 5,1 15 8 25 13 W 1002,7 14 0,9
21.06.2018 15:00:00 6,6 4,4 13 7 27 15 W 1002,4 13 0,8
21.06.2018 14:00:00 6,4 4,7 15 8 27 15 W 1002,0 12 0,8
21.06.2018 13:00:00 6,2 4,4 15 8 28 15 WSW 1001,8 11 1,0
21.06.2018 12:00:00 6,0 4,3 16 8 30 16 W 1001,6 11 1,8
21.06.2018 11:00:00 5,8 3,8 19 10 30 16 W 1001,3 8 2,3
21.06.2018 10:00:00 5,5 4,5 18 10 32 17 W 1001,1 4,1 3,2
21.06.2018 09:00:00 5,6 4,1 19 10 33 18 WNW 1000,6 7 2,7
21.06.2018 08:00:00 5,6 3,9 21 12 34 18 W 1000,2 6 2,8
21.06.2018 07:00:00 5,6 4,1 20 11 34 19 W 1000,3 10 1,3
21.06.2018 06:00:00 5,6 3,8 19 10 34 19 W 1000,1 14 1,4
21.06.2018 05:00:00 5,7 4,5 17 9 30 16 WNW 999,8 7 2,1
21.06.2018 04:00:00 5,6 4,4 19 10 29 15 WNW 999,7 8 2,2
21.06.2018 03:00:00 5,6 5,0 11 6 19 10 W 999,7 6 1,0
21.06.2018 02:00:00 5,5 4,6 8 5 24 13 W 999,7 18 0,0
21.06.2018 01:00:00 5,9 4,5 9 5 24 13 W 999,6 37 0,0
21.06.2018 00:00:00 5,8 5,4 14 7 22 12 WNW 999,3 8 0,2
20.06.2018 23:00:00 5,8 4,8 11 6 22 12 WNW 999,2 15 1,5
20.06.2018 22:00:00 6,2 5,0 8 4 18 10 WNW 998,8 33 0,2
20.06.2018 21:00:00 6,5 4,8 10 5 24 13 W 998,5 8 0,0
20.06.2018 20:00:00 6,7 5,0 11 6 24 13 W 998,4 50 0,1
20.06.2018 19:00:00 7,0 4,8 16 8 25 13 W 998,1 50 0,0
20.06.2018 18:00:00 7,2 4,3 15 8 25 13 WNW 997,8 46 0,0
20.06.2018 17:00:00 7,5 4,5 13 7 23 12 W 997,5 50 0,0
20.06.2018 16:00:00 7,4 4,5 12 7 24 13 WNW 997,2 18 0,0
20.06.2018 15:00:00 7,6 5,2 15 8 24 13 WNW 996,8 9 0,0
20.06.2018 14:00:00 8,7 5,3 14 8 22 12 NW 996,1 40 0,0
20.06.2018 13:00:00 7,9 5,4 11 6 17 9 NW 996,0 41 0,0
20.06.2018 12:00:00 6,8 4,8 10 6 14 8 NNW 995,8 33 0,1
20.06.2018 11:00:00 6,6 4,8 4 2 11 6 WNW 995,6 32 0,5
20.06.2018 10:00:00 6,0 5,0 4 2 17 9 WNW 995,1 28 0,2
20.06.2018 09:00:00 5,9 3,6 8 4 20 11 SW 994,8 34 0,2
20.06.2018 08:00:00 5,3 3,3 13 7 24 13 SSW 994,5 49 0,6
20.06.2018 07:00:00 4,7 3,5 4 2 24 13 WNW 994,5 4,4 1,9
20.06.2018 06:00:00 4,4 2,9 11 6 16 9 SSW 994,4 8 1,1
20.06.2018 05:00:00 3,6 2,3 7 4 22 12 SW 994,3 10 1,2
20.06.2018 04:00:00 3,3 2,0 13 7 26 14 SSW 994,4 8 1,0
20.06.2018 03:00:00 3,0 1,5 18 10 26 14 SSW 994,4 11 1,1
20.06.2018 02:00:00 3,7 2,2 14 8 23 12 SW 993,9 6 1,9
20.06.2018 01:00:00 4,2 2,9 10 5 20 11 WSW 993,7 8 1,8
20.06.2018 00:00:00 4,6 3,4 9 5 21 11 WSW 993,7 13 0,7
19.06.2018 23:00:00 5,0 3,8 7 4 21 11 WSW 993,3 15 0,4
19.06.2018 22:00:00 5,3 3,6 12 6 30 16 WSW 993,0 14 0,6
19.06.2018 21:00:00 5,3 4,4 8 5 39 21 NW 992,8 14 1,3
19.06.2018 20:00:00 5,7 4,8 14 8 40 22 WNW 992,4 15 2,0
19.06.2018 19:00:00 6,2 5,5 23 12 40 22 WNW 991,6 6 1,7
19.06.2018 18:00:00 6,8 5,9 14 8 29 15 WNW 991,5 5 1,6
19.06.2018 17:00:00 7,2 6,0 9 5 29 15 WNW 991,5 30 0,9
19.06.2018 16:00:00 8,3 7,4 16 9 37 20 WSW 991,1 15 0,0
19.06.2018 15:00:00 10,7 8,5 14 7 42 23 E 990,1 50 0,0
19.06.2018 14:00:00 10,5 7,7 22 12 42 23 ENE 990,3 40 0,0
19.06.2018 13:00:00 11,6 7,9 21 11 36 20 NE 990,7 42 0,0
19.06.2018 12:00:00 10,1 7,5 23 12 34 18 ENE 991,8 50 0,0
19.06.2018 11:00:00 9,1 7,1 8 4 13 7 NNW 993,0 49 0,2
19.06.2018 10:00:00 8,5 7,1 3 2 13 7 NNE 993,9 48 0,2
19.06.2018 09:00:00 8,2 6,5 3 2 13 7 NE 994,5 45 0,1
19.06.2018 08:00:00 8,0 6,8 4 2 13 7 NNE 995,3 42 0,1
19.06.2018 07:00:00 7,8 6,6 6 3 11 6 NNE 996,0 50 0,0
19.06.2018 06:00:00 7,5 6,9 3 1 11 6 NW 996,7 47 0,0
19.06.2018 05:00:00 7,5 6,4 2 1 9 5 ENE 997,0 50 0,0
19.06.2018 04:00:00 6,4 5,7 4 2 9 5 SSW 997,8 50 0,0
19.06.2018 03:00:00 5,4 5,0 6 4 14 7 WSW 998,1 50 0,0
19.06.2018 02:00:00 5,1 4,7 3 2 16 9 SSE 998,6 35 0,0
19.06.2018 01:00:00 6,7 5,9 8 4 16 9 W 998,7 50 0,0
19.06.2018 00:00:00 7,0 6,3 11 6 16 9 WSW 999,1 50 0,0
18.06.2018 23:00:00 7,1 6,4 6 3 23 12 W 999,0 50 0,1
18.06.2018 22:00:00 7,5 6,4 10 6 32 17 SW 999,2 29 0,6
18.06.2018 21:00:00 7,3 6,7 10 6 32 17 W 999,3 18 0,9
18.06.2018 20:00:00 8,1 6,7 13 7 27 15 WNW 999,1 24 0,1
18.06.2018 19:00:00 8,3 6,9 10 5 30 16 W 999,1 20 0,1
18.06.2018 18:00:00 8,3 6,9 19 10 30 16 WNW 999,4 7 0,2
18.06.2018 17:00:00 9,3 8,2 2 1 9 5 W 999,3 23 0,4
18.06.2018 16:00:00 9,0 8,1 5 3 27 14 N 999,7 20 0,3
18.06.2018 15:00:00 9,3 7,6 4 2 34 18 NNW 1000,1 29 0,0
18.06.2018 14:00:00 9,8 6,9 21 11 34 18 E 1000,5 22 0,0
18.06.2018 13:00:00 9,0 7,0 20 11 30 16 ENE 1001,7 21 0,0
18.06.2018 12:00:00 8,9 6,5 18 10 30 16 E 1003,0 43 0,1
18.06.2018 11:00:00 9,6 6,1 16 9 24 13 E 1004,0 33 0,0
18.06.2018 10:00:00 10,6 4,1 19 10 49 27 E 1004,8 50 0,0
18.06.2018 09:00:00 9,7 5,5 14 8 49 27 SE 1006,3 35 0,0
18.06.2018 08:00:00 11,2 3,2 27 14 50 27 S 1006,3 50 0,0
18.06.2018 07:00:00 11,2 2,2 28 15 50 27 SSE 1006,9 43 0,0
18.06.2018 06:00:00 11,0 3,5 19 10 51 28 ENE 1007,6 50 0,0
18.06.2018 05:00:00 11,2 3,2 35 19 51 28 S 1008,8 18 0,0
18.06.2018 04:00:00 11,5 1,7 5 3 11 6 S 1008,9 50 0,0
18.06.2018 03:00:00 10,3 2,9 6 3 19 11 SW 1009,9 50 0,0
18.06.2018 02:00:00 11,0 2,6 6 4 19 11 SSW 1010,3 50 0,0
18.06.2018 01:00:00 11,0 2,8 5 3 29 15 SW 1010,9 50 0,0
18.06.2018 00:00:00 - - - - 29 15 - - - -
17.06.2018 23:00:00 12,4 2,0 14 8 22 12 S 1012,0 50 0,0
17.06.2018 22:00:00 13,2 0,9 11 6 21 12 S 1012,2 50 0,0
17.06.2018 21:00:00 15,2 -0,6 4 2 25 14 SSW 1012,0 50 0,0
17.06.2018 20:00:00 14,9 0,0 14 8 27 15 SSW 1012,4 50 0,0
17.06.2018 19:00:00 15,2 0,2 16 9 27 15 SSW 1013,0 50 0,0
17.06.2018 18:00:00 16,7 -0,5 14 8 34 19 SSW 1013,1 50 0,0
17.06.2018 17:00:00 15,4 -1,7 20 11 34 19 SSW 1013,6 50 0,0
17.06.2018 16:00:00 16,1 -3,9 19 11 31 17 SSW 1013,7 43 0,0
17.06.2018 15:00:00 15,1 -1,9 11 6 30 16 SSE 1014,5 48 0,0
17.06.2018 14:00:00 14,1 -1,1 16 9 37 20 S 1015,2 46 0,0
17.06.2018 13:00:00 13,3 -0,4 14 8 37 20 S 1015,8 45 0,0
17.06.2018 12:00:00 11,1 1,1 8 5 16 9 N 1016,7 40 0,0
17.06.2018 11:00:00 10,1 0,9 5 3 16 9 WNW 1017,2 46 0,0
17.06.2018 10:00:00 8,6 2,4 6 4 23 12 N 1017,8 46 0,0
17.06.2018 09:00:00 7,9 3,6 10 6 23 12 E 1017,8 39 0,0
17.06.2018 08:00:00 6,2 3,0 11 6 19 11 NNW 1018,1 48 0,0
17.06.2018 07:00:00 6,3 3,3 11 6 25 14 WSW 1017,9 46 0,0
17.06.2018 06:00:00 5,3 2,6 13 7 25 14 W 1017,8 41 0,0
17.06.2018 05:00:00 5,3 2,1 18 10 24 13 W 1017,3 36 0,0
17.06.2018 04:00:00 5,4 2,2 11 6 18 10 WNW 1016,8 35 0,0
17.06.2018 03:00:00 5,3 2,3 3 1 20 11 N 1016,5 38 0,0
17.06.2018 02:00:00 5,3 2,6 10 5 24 13 W 1016,1 38 0,0
17.06.2018 01:00:00 5,3 2,8 16 9 24 13 WNW 1015,5 41 0,0
17.06.2018 00:00:00 5,0 2,7 12 7 27 15 WNW 1015,1 42 0,0
16.06.2018 23:00:00 5,5 3,5 5 3 27 15 W 1014,5 36 0,0
16.06.2018 22:00:00 5,9 3,7 16 9 25 13 WNW 1013,6 39 0,0
16.06.2018 21:00:00 6,7 3,7 10 6 29 16 WSW 1012,9 50 0,0
16.06.2018 20:00:00 7,6 4,2 11 6 30 16 WNW 1012,1 50 0,0
16.06.2018 19:00:00 6,9 4,9 15 8 33 18 WNW 1011,6 47 0,0

tt = Température de l'air
td = dewpoint
ff = Vitesse du vent
fx = gusts
dd = Direction du vent
ppp = reduced air pressure
vv = visibility
rr = Quantités de précipitations

stations d'obs. à proximité